This is the latest recevied weather packets stored in our database for station/object KC1IUC-13. If no packets are shown the sender has not sent any weather packets the latest 10 day(s).
| Time | Temp. | Humidity | Pressure | Rain* | Wind** | Luminosity | Snow |
|---|---|---|---|---|---|---|---|
| 1777668843 | 16.67° C | 44% | 1005.9 hPa | 0 mm | - | 43 W/m² | - |
| 1777668303 | 16.67° C | 44% | 1005.9 hPa | 0 mm | - | 40 W/m² | - |
| 1777667763 | 17.78° C | 44% | 1005.9 hPa | 0 mm | - | 40 W/m² | - |
| 1777667223 | 17.78° C | 44% | 1005.9 hPa | 0 mm | - | 46 W/m² | - |
| 1777666683 | 18.33° C | 45% | 1005.9 hPa | 0 mm | - | 520 W/m² | - |
| 1777666143 | 19.44° C | 46% | 1005.9 hPa | 0 mm | - | 563 W/m² | - |
| 1777665603 | 18.89° C | 46% | 1005.9 hPa | 0 mm | - | 618 W/m² | - |
| 1777665243 | 18.89° C | 47% | 1006.3 hPa | 0 mm | - | 592 W/m² | - |
| 1777664703 | 18.89° C | 47% | 1006.3 hPa | 0 mm | - | 637 W/m² | - |
| 1777664163 | 18.89° C | 47% | 1006.3 hPa | 0 mm | - | 633 W/m² | - |
| 1777663623 | 19.44° C | 48% | 1006.6 hPa | 0 mm | - | 171 W/m² | - |
| 1777663083 | 18.89° C | 49% | 1006.6 hPa | 0 mm | - | 672 W/m² | - |
| 1777662543 | 17.78° C | 48% | 1006.6 hPa | 0 mm | - | 708 W/m² | - |
| 1777662003 | 18.89° C | 50% | 1006.6 hPa | 0 mm | - | 624 W/m² | - |
| 1777661643 | 18.33° C | 50% | 1006.6 hPa | 0 mm | - | 586 W/m² | - |
| 1777661103 | 18.33° C | 50% | 1006.6 hPa | 0 mm | - | 373 W/m² | - |
| 1777660563 | 17.78° C | 51% | 1007 hPa | 0 mm | - | 547 W/m² | - |
| 1777660023 | 16.67° C | 51% | 1007 hPa | 0 mm | - | 464 W/m² | - |
| 1777659483 | 17.78° C | 51% | 1007.3 hPa | 0 mm | - | 196 W/m² | - |
| 1777658943 | 17.22° C | 51% | 1007 hPa | 0 mm | - | 118 W/m² | - |
| 1777658403 | 17.78° C | 53% | 1007.3 hPa | 0 mm | - | 627 W/m² | - |
| 1777658043 | 17.22° C | 52% | 1007.3 hPa | 0 mm | - | 413 W/m² | - |
| 1777657503 | 17.78° C | 53% | 1007.3 hPa | 0 mm | - | 764 W/m² | - |
| 1777656963 | 17.22° C | 54% | 1007.3 hPa | 0 mm | - | 610 W/m² | - |
| 1777656423 | 17.22° C | 55% | 1007.3 hPa | 0 mm | - | 184 W/m² | - |
* Rain latest hour (hover to see other rain measurements)
** Current wind speed in m/s (hover to see current wind gust speed)